Location: Invercargill
(46.4000°S, 168.3500°E)
Time: 03:46:34
(UTC+13:00)

Cosmos 2322 - Pass Details

Date: 02 October 2021
Orbit: 840 x 855 km, 71.0° (Epoch: 24 October)

Event Time Altitude Azimuth Distance (km) Brightness Sun altitude
Rises 22:31:01 0° 204° (SSW) 3,436 7.8 -25.4°
Reaches altitude 10° 22:33:36 10° 197° (SSW) 2,496 6.8 -25.8°
Enters shadow 22:39:01 45° 126° (SE) 1,157 4.2 -26.5°
